This is the latest recevied weather packets stored in our database for station/object SQ7RAF-15. If no packets are shown the sender has not sent any weather packets the latest 10 day(s).
| Time | Temp. | Humidity | Pressure | Rain* | Wind** | Luminosity | Snow |
|---|---|---|---|---|---|---|---|
| 1777613439 | 10.56° C | 64% | 1026.9 hPa | 0 mm | - | 134 W/m² | - |
| 1777613130 | 10° C | 65% | 1026.9 hPa | 0 mm | - | 130 W/m² | - |
| 1777612842 | 10° C | 66% | 1026.9 hPa | 0 mm | - | 124 W/m² | - |
| 1777612522 | 10° C | 67% | 1026.9 hPa | 0 mm | - | 121 W/m² | - |
| 1777612218 | 10° C | 67% | 1026.8 hPa | 0 mm | - | 114 W/m² | - |
| 1777611930 | 10° C | 67% | 1026.8 hPa | 0 mm | - | 99 W/m² | - |
| 1777611626 | 9.44° C | 69% | 1026.7 hPa | 0 mm | - | 90 W/m² | - |
| 1777611338 | 9.44° C | 72% | 1026.7 hPa | 0 mm | - | 85 W/m² | - |
| 1777611018 | 8.89° C | 74% | 1026.7 hPa | 0 mm | - | 76 W/m² | - |
| 1777610730 | 8.33° C | 76% | 1026.7 hPa | 0 mm | - | 68 W/m² | - |
| 1777610442 | 7.78° C | 78% | 1026.6 hPa | 0 mm | - | 54 W/m² | - |
| 1777610122 | 7.22° C | 81% | 1026.7 hPa | 0 mm | - | 46 W/m² | - |
| 1777609818 | 6.67° C | 83% | 1026.6 hPa | 0 mm | - | 40 W/m² | - |
| 1777609562 | 6.11° C | 83% | 1026.6 hPa | 0 mm | - | 26 W/m² | - |
| 1777609242 | 6.11° C | 83% | 1026.6 hPa | 0 mm | - | 20 W/m² | - |
| 1777608922 | 6.11° C | 84% | 1026.6 hPa | 0 mm | - | 19 W/m² | - |
| 1777608634 | 6.11° C | 84% | 1026.5 hPa | 0 mm | - | 18 W/m² | - |
| 1777608346 | 6.11° C | 84% | 1026.5 hPa | 0 mm | - | 16 W/m² | - |
| 1777608026 | 5.56° C | 84% | 1026.6 hPa | 0 mm | - | 14 W/m² | - |
| 1777607740 | 5.56° C | 83% | 1026.6 hPa | 0 mm | - | 12 W/m² | - |
| 1777607439 | 6.11° C | 83% | 1026.5 hPa | 0 mm | - | 12 W/m² | - |
| 1777607146 | 6.11° C | 83% | 1026.6 hPa | 0 mm | - | 10 W/m² | - |
| 1777606826 | 5.56° C | 83% | 1026.5 hPa | 0 mm | - | 8 W/m² | - |
| 1777606538 | 6.11° C | 82% | 1026.4 hPa | 0 mm | - | 5 W/m² | - |
| 1777606218 | 6.11° C | 81% | 1026.5 hPa | 0 mm | - | 4 W/m² | - |
* Rain latest hour (hover to see other rain measurements)
** Current wind speed in m/s (hover to see current wind gust speed)